[[{"header":{"parameterUnit":"m.s-1","parameterCategory":1,"la1":30.2991,"la2":30.254,"lo1":-89.0895,"lo2":-89.0444,"dy":0.0017,"dx":0.0017,"nx":28,"ny":28,"refTime":"2025-12-05T03:00:00:Z","depth":0,"parameterNumber":2,"parameterNumberName":"U-component_of_WINDS"},"data":[0,0,0,0,0,0,0,0,0,0,0,0,0,0,0,0,0,0,0,0,0,0,0,0,0,0,0,0,0,0,0,0,0,0,0,0,0,0,0,0,0,0,0,0,0,0,0,0,0,0,0,0,0,0,0,0,0,0,0.2078,0.2078,0,0.2027,0.2026,0.2025,0.2012,0.2012,0.2012,0.2013,0.1958,0.1957,0.1955,0,0,0,0,0,0,0,0,0,0,0,0,0,0.2164,0.2163,0.2078,0.2078,0.2077,0.2027,0.2026,0.2025,0.2012,0.2012,0.2012,0.2013,0.1959,0.1957,0.1955,0,0,0,0,0,0,0,0,0,0,0,0,0,0.2121,0.2162,0.2078,0.2064,0.2062,0.2027,0.2026,0.2025,0.2012,0.2012,0.2012,0.2013,0.196,0.1957,0.1954,0.1929,0,0,0.1947,0.1945,0,0,0,0,0,0,0,0,0.2124,0.2118,0.2067,0.2065,0.2063,0.2026,0.2037,0.1993,0.2011,0.2031,0.2013,0.2013,0.198,0.1976,0.1965,0.1927,0.1924,0.1946,0.1945,0.1944,0.1943,0,0,0,0,0,0,0,0.2127,0.212,0.2058,0.2066,0.2064,0.206,0.2055,0.2028,0.2004,0.2029,0.2028,0.2022,0.1979,0.1968,0.1964,0.1923,0.1946,0.1944,0.1942,0.1941,0.1862,0.1862,0,0,0,0,0,0,0.2132,0.2123,0.2059,0.2056,0.2095,0.2058,0.2052,0.2037,0.2004,0.1999,0.2022,0.2022,0.1972,0.1967,0.1962,0.193,0.1944,0.1941,0.194,0.1863,0.1862,0.1862,0,0,0,0,0,0,0.2134,0.2127,0.2061,0.2089,0.2081,0.2056,0.204,0.2036,0.2025,0.1998,0.1994,0.2015,0.1972,0.1966,0.1938,0.1928,0.194,0.1938,0.1863,0.1863,0.1862,0.1867,0,0,0,0,0,0,0.2137,0.2128,0.2118,0.2089,0.2079,0.2038,0.2039,0.2035,0.202,0.202,0.199,0.1986,0.1972,0.1942,0.1935,0.1925,0.1936,0.1864,0.1863,0.1862,0.1867,0.1866,0.1866,0,0,0,0,0,0.214,0.2121,0.2117,0.211,0.2066,0.2038,0.2032,0.2017,0.202,0.2009,0.1993,0.1987,0.1931,0.1939,0.1931,0.192,0.1865,0.1863,0.1862,0.1868,0.1867,0.1866,0,0,0,0,0,0,0.2148,0.2116,0.2112,0.2083,0.2063,0.2035,0.2022,0.2016,0.1994,0.1994,0.1976,0.197,0.1943,0.1929,0.1939,0.1895,0.1898,0.1895,0.1905,0.1903,0.1902,0.1906,0.1933,0,0,0,0,0,0.2146,0.2126,0.2099,0.2076,0.2067,0.2046,0.2033,0.2023,0.2002,0.1993,0.1974,0.1953,0.1931,0.1916,0.1894,0.1866,0.1859,0.1855,0.1854,0.1853,0.1851,0.1835,0.1833,0.1858,0.1858,0.1858,0,0,0.2142,0.2123,0.2111,0.2077,0.2061,0.204,0.2039,0.2017,0.2001,0.1989,0.1962,0.1948,0.1923,0.1895,0.1882,0.1882,0.1843,0.1852,0.1851,0.1849,0.1834,0.1831,0.1829,0.1857,0.1857,0.1857,0,0,0.2125,0.2108,0.2087,0.2071,0.2046,0.2033,0.2028,0.2001,0.1992,0.1964,0.1955,0.1937,0.1898,0.1881,0.1868,0.1846,0.184,0.1839,0.1834,0.1819,0.1817,0.1815,0.1807,0.1805,0.1837,0.1837,0.1837,0,0.2123,0.2091,0.2077,0.2055,0.2041,0.2031,0.201,0.1995,0.1964,0.1954,0.1956,0.1909,0.1891,0.186,0.1855,0.1844,0.1838,0.1842,0.1819,0.1817,0.1815,0.1807,0.1804,0.1837,0.1837,0.1837,0.1837,0,0.209,0.2069,0.2055,0.2026,0.2011,0.1989,0.1972,0.1958,0.195,0.1937,0.191,0.1889,0.1863,0.1855,0.1847,0.1822,0.1824,0.1822,0.1825,0.1813,0.1805,0.1802,0.1837,0.1837,0.1837,0.1837,0,0,0.2074,0.204,0.2035,0.2022,0.1995,0.1978,0.1957,0.1932,0.192,0.19,0.1881,0.1851,0.185,0.1834,0.1824,0.1812,0.1796,0.1812,0.1811,0.1809,0.1768,0.1769,0.1766,0.1792,0.1792,0.1791,0.177,0,0.2053,0.2015,0.2002,0.197,0.195,0.1942,0.1923,0.1905,0.1892,0.1874,0.186,0.1838,0.1838,0.1829,0.1816,0.1801,0.1787,0.1802,0.1775,0.1774,0.1781,0.1762,0.1762,0.1743,0.1767,0.1767,0.1766,0,0.2022,0.2003,0.1969,0.1946,0.1937,0.192,0.1897,0.188,0.1859,0.1851,0.1835,0.1826,0.1804,0.1809,0.1778,0.1789,0.1777,0.1768,0.1767,0.1763,0.1769,0.1757,0.1737,0.1734,0.1762,0.1762,0.1762,0,0.2014,0.1979,0.1954,0.1944,0.1916,0.1905,0.1893,0.1872,0.1859,0.1839,0.183,0.1808,0.1795,0.1778,0.1764,0.1769,0.1735,0.1738,0.1727,0.1728,0.172,0.172,0.1697,0.1713,0.1713,0.1713,0.1713,0,0.1991,0.1971,0.195,0.1935,0.1913,0.1899,0.1877,0.1864,0.1847,0.1829,0.182,0.1804,0.1787,0.1768,0.1757,0.1734,0.1728,0.1721,0.1718,0.1722,0.1722,0.1713,0.1714,0.1713,0.1713,0.1713,0.1713,0,0.1977,0.1963,0.1935,0.1912,0.1906,0.189,0.187,0.1855,0.1843,0.1821,0.1815,0.1796,0.1774,0.1759,0.173,0.1723,0.1698,0.1695,0.1705,0.1703,0.1693,0.1694,0.1662,0.1657,0.1678,0.1677,0.1677,0,0.1963,0.1947,0.1922,0.191,0.1898,0.1879,0.1865,0.1852,0.1838,0.1814,0.1802,0.178,0.1761,0.1727,0.171,0.1689,0.1686,0.1676,0.1682,0.1686,0.1685,0.1686,0.1685,0.1675,0.1675,0.1674,0.1674,0,0.1939,0.1933,0.1914,0.1893,0.1878,0.186,0.1843,0.1833,0.1817,0.1802,0.178,0.1766,0.1737,0.1715,0.1693,0.168,0.1674,0.1673,0.1669,0.1672,0.1678,0.1674,0.1701,0.1673,0.1673,0.1673,0.1673,0.1674,0.1924,0.191,0.1891,0.1871,0.1857,0.1841,0.1826,0.1813,0.1794,0.177,0.1764,0.1741,0.1722,0.1691,0.1678,0.166,0.1661,0.1656,0.1654,0.1653,0.1653,0.1682,0.1656,0.1656,0.1656,0.1656,0.1656,0,0.19,0.1888,0.1869,0.1846,0.183,0.1827,0.1808,0.1795,0.1775,0.1758,0.174,0.1715,0.1694,0.1677,0.1656,0.1645,0.1642,0.164,0.164,0.1637,0.1654,0.1659,0.1642,0.1642,0.1642,0.1642,0.1642,0.1642,0.1886,0.1862,0.1854,0.1824,0.1812,0.1789,0.1779,0.1765,0.1751,0.1724,0.1707,0.1696,0.1679,0.1657,0.1638,0.1633,0.1626,0.1624,0.1619,0.1634,0.1636,0.1637,0.1642,0.1623,0.1623,0.1604,0.1604,0.1604]},{"header":{"parameterUnit":"m.s-1","parameterCategory":1,"la1":30.2991,"la2":30.254,"lo1":-89.0895,"lo2":-89.0444,"dy":0.0017,"dx":0.0017,"nx":28,"ny":28,"refTime":"2025-12-05T03:00:00:Z","depth":0,"parameterNumber":3,"parameterNumberName":"V-component_of_WINDS"},"data":[0,0,0,0,0,0,0,0,0,0,0,0,0,0,0,0,0,0,0,0,0,0,0,0,0,0,0,0,0,0,0,0,0,0,0,0,0,0,0,0,0,0,0,0,0,0,0,0,0,0,0,0,0,0,0,0,0,0,-6.6016,-6.6017,0,-6.6176,-6.6177,-6.6179,-6.6128,-6.6125,-6.6122,-6.6118,-6.6277,-6.6284,-6.6291,0,0,0,0,0,0,0,0,0,0,0,0,0,-6.566,-6.5667,-6.6015,-6.6017,-6.6019,-6.6175,-6.6178,-6.618,-6.6129,-6.6125,-6.6121,-6.6117,-6.6274,-6.6283,-6.6292,0,0,0,0,0,0,0,0,0,0,0,0,0,-6.5817,-6.5669,-6.6015,-6.6013,-6.6014,-6.6175,-6.6178,-6.618,-6.613,-6.6125,-6.612,-6.6115,-6.6271,-6.6282,-6.6293,-6.6463,0,0,-6.6327,-6.6332,0,0,0,0,0,0,0,0,-6.5808,-6.583,-6.6011,-6.6013,-6.6015,-6.6127,-6.611,-6.6275,-6.6131,-6.6086,-6.6118,-6.6112,-6.6231,-6.6245,-6.6286,-6.6471,-6.6477,-6.6328,-6.6334,-6.6339,-6.6342,0,0,0,0,0,0,0,-6.5797,-6.5823,-6.6078,-6.6014,-6.6016,-6.6002,-6.6019,-6.6141,-6.6185,-6.6089,-6.6086,-6.6106,-6.6231,-6.6275,-6.6289,-6.648,-6.6327,-6.6337,-6.6344,-6.6348,-6.6813,-6.6818,0,0,0,0,0,0,-6.5786,-6.5814,-6.6073,-6.6083,-6.5897,-6.6013,-6.6031,-6.6096,-6.6183,-6.6192,-6.611,-6.6103,-6.6259,-6.6276,-6.6294,-6.65,-6.6339,-6.6349,-6.6356,-6.6807,-6.6814,-6.682,0,0,0,0,0,0,-6.5778,-6.581,-6.6067,-6.5948,-6.598,-6.6025,-6.6097,-6.6102,-6.6147,-6.6199,-6.6206,-6.6148,-6.6255,-6.6279,-6.6422,-6.6505,-6.6354,-6.6365,-6.6801,-6.6809,-6.6817,-6.6913,0,0,0,0,0,0,-6.5769,-6.5807,-6.5874,-6.595,-6.5986,-6.6194,-6.6103,-6.6109,-6.6166,-6.6159,-6.6236,-6.6244,-6.6253,-6.6406,-6.6433,-6.6518,-6.6373,-6.6793,-6.6805,-6.6815,-6.6903,-6.6924,-6.6942,0,0,0,0,0,-6.5756,-6.5893,-6.5877,-6.5909,-6.6071,-6.6199,-6.622,-6.6229,-6.6173,-6.624,-6.6274,-6.6242,-6.6491,-6.6421,-6.6451,-6.654,-6.6788,-6.6801,-6.6814,-6.6894,-6.692,-6.6942,0,0,0,0,0,0,-6.5823,-6.5903,-6.5886,-6.6052,-6.612,-6.619,-6.6274,-6.6255,-6.6338,-6.6327,-6.6333,-6.6351,-6.6499,-6.6533,-6.6454,-6.671,-6.6631,-6.6651,-6.6682,-6.6707,-6.6726,-6.6715,-6.6382,0,0,0,0,0,-6.5857,-6.5957,-6.602,-6.616,-6.6195,-6.6229,-6.6285,-6.6287,-6.6356,-6.6383,-6.6428,-6.6494,-6.6588,-6.6649,-6.6738,-6.6907,-6.6923,-6.6983,-6.7003,-6.7019,-6.7036,-6.7128,-6.7156,-6.6862,-6.6862,-6.6862,0,0,-6.5929,-6.5985,-6.6047,-6.6175,-6.6228,-6.6329,-6.6253,-6.6364,-6.6439,-6.6399,-6.6539,-6.6573,-6.6648,-6.6806,-6.6877,-6.6839,-6.712,-6.7035,-6.7047,-6.7056,-6.7144,-6.7172,-6.7197,-6.6871,-6.687,-6.6868,0,0,-6.6111,-6.6164,-6.6287,-6.6341,-6.6422,-6.6444,-6.6473,-6.6548,-6.657,-6.671,-6.6683,-6.6771,-6.6932,-6.6986,-6.7035,-6.7239,-6.7213,-6.7268,-6.737,-6.746,-6.7483,-6.7504,-6.7577,-6.7603,-6.7284,-6.7284,-6.7284,0,-6.6189,-6.6343,-6.6352,-6.6466,-6.6523,-6.6494,-6.6618,-6.6669,-6.6774,-6.6814,-6.677,-6.6972,-6.702,-6.7191,-6.7241,-6.7281,-6.7314,-6.7259,-6.748,-6.75,-6.752,-6.759,-6.7617,-6.729,-6.729,-6.7289,-6.7289,0,-6.6435,-6.6542,-6.6632,-6.6737,-6.6804,-6.6922,-6.6947,-6.7013,-6.7009,-6.7035,-6.7178,-6.7234,-6.7335,-6.7375,-6.737,-6.7545,-6.7519,-6.7478,-6.7399,-6.7554,-6.7619,-6.7646,-6.7299,-6.7297,-6.7295,-6.7294,0,0,-6.6664,-6.6774,-6.6806,-6.6854,-6.6941,-6.7023,-6.7139,-6.724,-6.7297,-6.737,-6.7467,-6.7604,-6.7567,-6.7623,-6.7624,-6.7703,-6.7862,-6.7652,-6.7654,-6.769,-6.8058,-6.8089,-6.812,-6.7845,-6.785,-6.7854,-6.8052,0,-6.6855,-6.7062,-6.7073,-6.7261,-6.736,-6.7334,-6.7435,-6.7499,-6.7526,-6.7612,-6.7641,-6.7739,-6.7682,-6.7716,-6.7793,-6.7826,-6.7936,-6.7812,-6.7935,-6.7939,-6.7918,-6.8154,-6.8188,-6.8371,-6.8077,-6.8082,-6.8085,0,-6.7104,-6.7188,-6.7386,-6.7461,-6.7502,-6.7594,-6.7687,-6.777,-6.7841,-6.7855,-6.7918,-6.7909,-6.8026,-6.7944,-6.8105,-6.8021,-6.8071,-6.8095,-6.8103,-6.8115,-6.8022,-6.8173,-6.843,-6.8458,-6.8125,-6.8122,-6.8119,0,-6.7253,-6.7414,-6.7554,-6.7595,-6.7685,-6.775,-6.779,-6.7857,-6.7917,-6.7997,-6.8036,-6.8128,-6.8179,-6.8249,-6.8264,-6.8203,-6.8427,-6.8345,-6.8441,-6.8441,-6.849,-6.8487,-6.8759,-6.8521,-6.8521,-6.852,-6.852,0,-6.7464,-6.7587,-6.7622,-6.7708,-6.7844,-6.7855,-6.7989,-6.8024,-6.8084,-6.8175,-6.8157,-6.8243,-6.8257,-6.8345,-6.8357,-6.849,-6.8512,-6.8526,-6.8528,-6.8529,-6.8527,-6.8562,-6.855,-6.8528,-6.8526,-6.8525,-6.8523,0,-6.7653,-6.7682,-6.7833,-6.7906,-6.7928,-6.8025,-6.8087,-6.8168,-6.8194,-6.831,-6.8337,-6.8377,-6.848,-6.8502,-6.8623,-6.8631,-6.8789,-6.8778,-6.8766,-6.8765,-6.886,-6.8852,-6.9166,-6.9207,-6.8942,-6.8944,-6.8946,0,-6.7787,-6.7881,-6.7965,-6.8026,-6.807,-6.8168,-6.823,-6.8244,-6.8308,-6.8397,-6.8468,-6.857,-6.8652,-6.8818,-6.8856,-6.8949,-6.894,-6.9044,-6.8954,-6.8952,-6.8943,-6.8938,-6.8947,-6.9061,-6.9064,-6.9066,-6.9068,0,-6.8021,-6.8031,-6.8122,-6.8218,-6.8293,-6.8369,-6.8441,-6.8491,-6.8515,-6.8588,-6.8695,-6.8759,-6.8884,-6.8985,-6.9078,-6.9117,-6.9097,-6.9096,-6.9124,-6.9126,-6.9115,-6.9123,-6.8814,-6.9089,-6.9087,-6.9086,-6.9084,-6.9084,-6.8187,-6.827,-6.8343,-6.8444,-6.8501,-6.8569,-6.865,-6.8686,-6.8776,-6.8881,-6.8883,-6.9,-6.9068,-6.9192,-6.9237,-6.9327,-6.9294,-6.9333,-6.9343,-6.9353,-6.9362,-6.9101,-6.9343,-6.9343,-6.9342,-6.9342,-6.9341,0,-6.8421,-6.8468,-6.8561,-6.8664,-6.8744,-6.872,-6.8798,-6.8866,-6.897,-6.9036,-6.9118,-6.9241,-6.9339,-6.9385,-6.9482,-6.9545,-6.9538,-6.957,-6.9566,-6.9575,-6.9386,-6.9353,-6.9574,-6.9574,-6.9574,-6.9574,-6.9574,-6.9574,-6.8553,-6.8692,-6.8711,-6.8877,-6.8921,-6.9037,-6.9084,-6.9147,-6.92,-6.9339,-6.9421,-6.9452,-6.951,-6.9611,-6.9699,-6.971,-6.9746,-6.9783,-6.979,-6.9612,-6.9588,-6.9566,-6.9535,-6.9791,-6.9791,-6.9971,-6.9973,-6.9974]}]]